Flag for Croatia Weather past 2 weeks in Dubrovnik, Croatia

Now
61 °F

Clear.


Feels Like: 61 °F
Forecast: 65 / 70 °F
Wind: 5 mph from East

Location: Dubrovnik / Cilipi

Current Time: Sep 19, 2014 at 2:00:42 AM

Latest Report: Sep 19, 2014 at 1:30 AM


Visibility: 10 mi

Pressure: 30.12 "Hg

Humidity: 88%

Dew point: 57 °F

Location of DubrovnikLocation

Historic Weather in Dubrovnik — Graph

°F

Dubrovnik temperature yesterday

Maximum temperature yesterday: 73 °F (at 10:30 AM)
Minimum temperature yesterday: 61 °F (at 11:30 PM)
Average temperature yesterday: 68 °F

Past Weeks' High & Low Weather Summary

 TemperatureHumidityPressure
High77 °F (Sep 7, 12:00 PM)100% (Sep 4, 3:00 PM)30.12 "Hg (Sep 4, 3:00 PM)
Low57 °F (Sep 15, 4:00 AM)50% (Sep 14, 1:30 PM)29.77 "Hg (Sep 6, 5:30 AM)
Average69 °F79%29.93 "Hg
* Reported Sep 4 1:00 AM — Sep 19 1:00 AM, Dubrovnik, Weather by CustomWeather, © 2014

Note: Actual official high and low records may vary slightly from our data, if they occured in-between our weather recording intervals... More about our weather records

Advertising

Dubrovnik weather history for previous 24 hours

 ConditionsComfort  
Time TempWeatherWind HumidityBarometerVisibility
1:00 AM
Sep 19
61 °FClear.6 mph88%30.12 "Hg10 mi
12:30 AM61 °FPassing clouds.5 mph88%30.12 "HgN/A
12:00 AM61 °FClear.1 mph94%30.12 "Hg10 mi
11:30 PM
Sep 18
61 °FClear.6 mph94%30.12 "Hg10 mi
11:00 PM63 °FPassing clouds.3 mph83%30.12 "HgN/A
10:30 PM64 °FClear.2 mph83%30.12 "Hg10 mi
10:00 PM64 °FClear.2 mph83%30.12 "Hg10 mi
9:30 PM64 °FClear.2 mph83%30.09 "Hg10 mi
9:00 PM68 °FPassing clouds.3 mph69%30.09 "HgN/A
8:30 PM66 °FClear.6 mph78%30.09 "Hg10 mi
8:00 PM66 °FClear.No wind83%30.09 "Hg10 mi
7:30 PM66 °FPassing clouds.3 mph88%30.09 "HgN/A
7:00 PM68 °FSunny.5 mph83%30.09 "Hg10 mi
6:30 PM70 °FPassing clouds.3 mph78%30.09 "HgN/A
6:00 PM72 °FSunny.3 mph73%30.09 "Hg10 mi
5:30 PM72 °FPassing clouds.5 mph73%30.09 "HgN/A
5:00 PM72 °FPassing clouds.5 mph73%30.07 "HgN/A
4:30 PM73 °FPassing clouds.7 mph69%30.07 "HgN/A
4:00 PM73 °FPassing clouds.7 mph69%30.07 "HgN/A
3:30 PM73 °FPassing clouds.6 mph69%30.07 "HgN/A
3:00 PM73 °FPassing clouds.6 mph69%30.07 "HgN/A
2:30 PM73 °FPassing clouds.8 mph74%30.07 "HgN/A
2:00 PM73 °FPassing clouds.8 mph74%30.07 "HgN/A
1:30 PM73 °FPassing clouds.8 mph69%30.07 "HgN/A
1:00 PM73 °FPassing clouds.7 mph69%30.09 "HgN/A
12:30 PM73 °FPassing clouds.9 mph69%30.09 "HgN/A
12:00 PM73 °FPassing clouds.9 mph69%30.07 "HgN/A
11:30 AM73 °FPassing clouds.8 mph69%30.07 "HgN/A
11:00 AM73 °FPassing clouds.8 mph69%30.07 "HgN/A
10:30 AM73 °FPassing clouds.6 mph65%30.07 "HgN/A
10:00 AM72 °FPassing clouds.6 mph69%30.07 "HgN/A
9:30 AM72 °FSunny.6 mph61%30.07 "Hg10 mi
9:00 AM70 °FSunny.6 mph69%30.04 "Hg10 mi
8:30 AM68 °FSunny.6 mph73%30.04 "Hg10 mi
8:00 AM66 °FPassing clouds.5 mph73%30.04 "HgN/A
7:30 AM64 °FSunny.8 mph73%30.04 "Hg10 mi
7:00 AM64 °FPassing clouds.8 mph68%30.01 "HgN/A
6:30 AM64 °FPassing clouds.7 mph68%30.01 "HgN/A
6:00 AM64 °FClear.8 mph68%30.01 "Hg10 mi
5:30 AM66 °FClear.8 mph68%30.01 "Hg10 mi
5:00 AM63 °FClear.7 mph77%30.01 "Hg10 mi
4:30 AM64 °FClear.8 mph78%30.01 "Hg10 mi
4:00 AM64 °FClear.8 mph73%30.01 "Hg10 mi
3:30 AM63 °FClear.10 mph83%30.01 "Hg10 mi
3:00 AM64 °FClear.6 mph73%30.01 "Hg10 mi
2:30 AM63 °FClear.5 mph83%30.01 "Hg10 mi
2:00 AM66 °FClear.3 mph73%30.01 "Hg10 mi
Weather by CustomWeather, © 2014

See weather overviewHow to use our weather pages